Simultaneous Nadir Overpasses (SNOs) Predictions

Prediction of SNOs between AURA and NPP Satellite Orbit:

Table of predicted SNOs for the next 14.0 days since TLE Epoch: 1/19/2019
Index Date (AURA) Time (AURA) Lat,Lon (AURA) SZA (AURA ) Date (NPP) Time (NPP) Lat,Lon (NPP) SZA (NPP ) Distance(km) Time Diff (sec)
1 01/20/2019 02:52:05 -79.46,-146.40 67.22 01/20/2019 02:51:07 -79.45,-146.50 67.15 2.08 58
2 01/20/2019 03:41:23 79.75, 23.37 112.35 01/20/2019 03:41:42 79.75, 23.41 112.33 0.78 19
3 01/22/2019 19:08:32 -79.54, -29.99 67.88 01/22/2019 19:07:58 -79.53, -30.10 67.83 2.25 34
4 01/22/2019 19:57:50 79.82, 139.79 111.69 01/22/2019 19:58:33 79.83, 139.84 111.65 1.04 43
5 01/25/2019 11:25:00 -79.61, 86.43 68.59 01/25/2019 11:24:50 -79.60, 86.30 68.56 2.58 10
6 01/25/2019 12:14:18 79.89,-103.78 110.99 01/25/2019 12:15:25 79.89,-103.73 110.93 1.14 67
7 01/28/2019 02:52:05 79.52, 34.04 110.91 01/28/2019 02:51:01 79.53, 34.13 110.94 1.98 64
8 01/28/2019 03:41:28 -79.69,-157.15 69.34 01/28/2019 03:41:42 -79.68,-157.29 69.32 3.08 14
9 01/30/2019 19:08:33 79.60, 150.44 110.12 01/30/2019 19:07:53 79.60, 150.51 110.13 1.62 40




NCC Satellite Simultaneous Nadir Overpasses (SNOs) Prediction Service
